sat.trackr.live / text

‹ back to catalog

STARLINK-32502

NORAD 62116 · 2024-222C

PAYLOAD ACTIVE UNKNOWN

§ Identity

Operator
Country
US
Launch date
2024-11-27
Launch site
AFETR
Launch vehicle
Mass (kg)
RCS (m²)

Purposes: comms

External: N2YO · Heavens-Above · Gunter

§ Orbital elements

Epoch: 2026-09-21T21:18:31.998240Z

Period
94.27 min
Inclination
43.0023°
Eccentricity
0.0001389
Mean motion
15.27592755 rev/d
Perigee alt
482.1 km
Apogee alt
484.0 km
Semi-major
6,861.1 km
B*
4.5425e-4
RAAN
108.2754°
Arg perigee
276.3705°
Mean anomaly
83.6988°
Rev number
10,281

§ Raw data

STARLINK-325021 62116U 24222C   26264.88787035  .00012264  00000+0  45425-3 0  99912 62116  43.0023 108.2754 0001389 276.3705  83.6988 15.27592755102810

JSON: /api/v1/satellites/62116 · /tle

For live sub-satellite position, see the globe view (requires WebGL).

§ Visibility from observer

Set your observer location to see the next 7 days of passes ≥ 10°. The values pass through the URL so the page stays shareable.

No JS? Fill the form by hand. The geolocation button needs JavaScript.